N8295H KLAX-KFAT

Flight info

Callsign N8295H
Flight time 1h 0m
Altitude 15000
Route GMN7 EHF DCT TTE DCT
Aircraft P46T/L-SBDGRWY/SB1

Departure

Time 2026-04-18 03:46
Airport Los Angeles International Airport (KLAX)

Arrival

Time 2026-04-18 04:46
Airport Fresno Yosemite International Airport (KFAT)
Time Latitude Longitude Altitude Speed Heading
2026-04-18 03:20 33.93344 -118.39154 121 ft 0 kts 180°
2026-04-18 03:33 33.93348 -118.39154 121 ft 0 kts 181°
2026-04-18 03:33 33.93353 -118.39155 119 ft 0 kts 154°
2026-04-18 03:33 33.93354 -118.39156 119 ft 0 kts 153°
2026-04-18 03:33 33.93370 -118.39145 119 ft 5 kts
2026-04-18 03:34 33.93372 -118.39145 119 ft 0 kts
2026-04-18 03:35 33.93411 -118.39133 121 ft 15 kts 18°
2026-04-18 03:35 33.93515 -118.39115 119 ft 17 kts 45°
2026-04-18 03:35 33.93543 -118.38957 121 ft 20 kts 83°
2026-04-18 03:35 33.93560 -118.38791 121 ft 20 kts 83°
2026-04-18 03:36 33.93577 -118.38625 120 ft 20 kts 82°
2026-04-18 03:36 33.93594 -118.38469 121 ft 8 kts 83°
2026-04-18 03:36 33.93594 -118.38465 118 ft 0 kts 82°
2026-04-18 03:38 33.93600 -118.38397 120 ft 15 kts 84°
2026-04-18 03:39 33.93628 -118.38286 119 ft 10 kts 30°
2026-04-18 03:39 33.93639 -118.38281 120 ft 0 kts 12°
2026-04-18 03:44 33.93665 -118.38279 120 ft 9 kts 358°
2026-04-18 03:44 33.93730 -118.38329 120 ft 14 kts 287°
2026-04-18 03:44 33.93731 -118.38352 120 ft 0 kts 264°
2026-04-18 03:45 33.93729 -118.38369 120 ft 15 kts 263°
2026-04-18 03:46 33.93692 -118.38725 120 ft 70 kts 263°
2026-04-18 03:46 33.93611 -118.39469 194 ft 103 kts 262°
2026-04-18 03:46 33.93536 -118.40404 435 ft 118 kts 263°
2026-04-18 03:46 33.93409 -118.41414 800 ft 127 kts 261°
2026-04-18 03:47 33.93282 -118.42507 1143 ft 137 kts 264°
2026-04-18 03:47 33.93162 -118.43641 1669 ft 134 kts 267°
2026-04-18 03:47 33.93082 -118.44763 2120 ft 137 kts 269°
2026-04-18 03:47 33.93042 -118.45947 2451 ft 145 kts 269°
2026-04-18 03:48 33.92939 -118.47194 2765 ft 154 kts 265°
2026-04-18 03:48 33.92786 -118.48497 3099 ft 160 kts 262°
2026-04-18 03:48 33.92620 -118.49832 3465 ft 162 kts 263°
2026-04-18 03:48 33.92453 -118.51184 3845 ft 164 kts 263°
2026-04-18 03:49 33.92284 -118.52545 4239 ft 165 kts 263°
2026-04-18 03:49 33.92115 -118.53920 4632 ft 166 kts 263°
2026-04-18 03:49 33.91948 -118.55300 5025 ft 167 kts 263°
2026-04-18 03:49 33.91784 -118.56693 5418 ft 168 kts 263°
2026-04-18 03:50 33.91624 -118.58092 5812 ft 169 kts 262°
2026-04-18 03:50 33.91470 -118.59502 6212 ft 170 kts 262°
2026-04-18 03:50 33.91330 -118.60919 6600 ft 170 kts 269°
2026-04-18 03:50 33.91732 -118.62212 6987 ft 169 kts 316°
2026-04-18 03:51 33.92753 -118.62782 7383 ft 165 kts 350°
2026-04-18 03:51 33.93898 -118.63030 7786 ft 165 kts 351°
2026-04-18 03:51 33.95053 -118.63258 8003 ft 177 kts 352°
2026-04-18 03:51 33.96314 -118.63488 8014 ft 193 kts 352°
2026-04-18 03:52 33.97638 -118.63912 8002 ft 202 kts 332°
2026-04-18 03:52 33.98787 -118.64914 8010 ft 205 kts 322°
2026-04-18 03:52 33.99907 -118.65996 8010 ft 206 kts 322°
2026-04-18 03:52 34.01023 -118.67086 8013 ft 207 kts 322°
2026-04-18 03:53 34.02135 -118.68199 8015 ft 208 kts 322°
2026-04-18 03:53 34.03251 -118.69315 8016 ft 209 kts 322°
2026-04-18 03:53 34.04371 -118.70434 8015 ft 209 kts 322°
2026-04-18 03:53 34.05488 -118.71547 8088 ft 204 kts 322°
2026-04-18 03:54 34.06596 -118.72506 8408 ft 192 kts 340°
2026-04-18 03:54 34.07893 -118.72652 8743 ft 187 kts
2026-04-18 03:54 34.09196 -118.72721 9063 ft 188 kts 354°
2026-04-18 03:54 34.10494 -118.72946 9393 ft 188 kts 351°
2026-04-18 03:55 34.11767 -118.73194 9725 ft 188 kts 351°
2026-04-18 03:55 34.13057 -118.73439 10042 ft 188 kts 351°
2026-04-18 03:55 34.14350 -118.73680 10347 ft 187 kts 351°
2026-04-18 03:55 34.15639 -118.73921 10651 ft 187 kts 351°
2026-04-18 03:56 34.16923 -118.74162 10959 ft 187 kts 351°
2026-04-18 03:56 34.18213 -118.74404 11273 ft 188 kts 351°
2026-04-18 03:56 34.19507 -118.74645 11586 ft 188 kts 350°
2026-04-18 03:56 34.20803 -118.74888 11911 ft 188 kts 350°
2026-04-18 03:57 34.23397 -118.75374 12558 ft 189 kts 350°
2026-04-18 03:57 34.24701 -118.75618 12880 ft 189 kts 350°
2026-04-18 03:57 34.26002 -118.75862 13216 ft 189 kts 350°
2026-04-18 03:58 34.27304 -118.76106 13549 ft 189 kts 350°
2026-04-18 03:58 34.28605 -118.76351 13878 ft 189 kts 349°
2026-04-18 03:58 34.29906 -118.76595 14176 ft 189 kts 350°
2026-04-18 03:58 34.31208 -118.76839 14477 ft 189 kts 350°
2026-04-18 03:59 34.32509 -118.77083 14791 ft 189 kts 350°
2026-04-18 03:59 34.33807 -118.77327 15098 ft 189 kts 350°
2026-04-18 03:59 34.35102 -118.77571 15409 ft 188 kts 350°
2026-04-18 03:59 34.36396 -118.77814 15728 ft 188 kts 349°
2026-04-18 04:00 34.37670 -118.78054 16042 ft 188 kts 350°
2026-04-18 04:00 34.38963 -118.78297 16371 ft 188 kts 349°
2026-04-18 04:00 34.40255 -118.78540 16695 ft 188 kts 349°
2026-04-18 04:00 34.41545 -118.78783 17030 ft 188 kts 350°
2026-04-18 04:01 34.42835 -118.79026 17365 ft 188 kts 349°
2026-04-18 04:01 34.44124 -118.79268 17700 ft 187 kts 350°
2026-04-18 04:01 34.45415 -118.79512 18045 ft 187 kts 350°
2026-04-18 04:01 34.46703 -118.79755 18376 ft 188 kts 350°
2026-04-18 04:02 34.47995 -118.79998 18675 ft 188 kts 350°
2026-04-18 04:02 34.49291 -118.80243 18984 ft 189 kts 350°
2026-04-18 04:02 34.50585 -118.80487 19286 ft 189 kts 350°
2026-04-18 04:02 34.51885 -118.80732 19590 ft 188 kts 350°
2026-04-18 04:03 34.53180 -118.80976 19895 ft 188 kts 350°
2026-04-18 04:03 34.54479 -118.81222 20208 ft 189 kts 350°
2026-04-18 04:03 34.55773 -118.81466 20520 ft 188 kts 350°
2026-04-18 04:03 34.57052 -118.81708 20834 ft 188 kts 351°
2026-04-18 04:04 34.58344 -118.81951 21169 ft 188 kts 350°
2026-04-18 04:04 34.59629 -118.82195 21495 ft 187 kts 350°
2026-04-18 04:04 34.60914 -118.82438 21822 ft 187 kts 349°
2026-04-18 04:04 34.62198 -118.82681 22153 ft 187 kts 350°
2026-04-18 04:05 34.63481 -118.82924 22488 ft 186 kts 350°
2026-04-18 04:05 34.64762 -118.83166 22833 ft 186 kts 350°
2026-04-18 04:05 34.66053 -118.83410 23083 ft 191 kts 350°
2026-04-18 04:05 34.67419 -118.83667 23102 ft 206 kts 350°
2026-04-18 04:06 34.68873 -118.83938 23105 ft 216 kts 350°
2026-04-18 04:06 34.70391 -118.84222 23101 ft 225 kts 350°
2026-04-18 04:06 34.71955 -118.84517 23102 ft 230 kts 350°
2026-04-18 04:06 34.73552 -118.84819 23104 ft 234 kts 350°
2026-04-18 04:07 34.75175 -118.85125 23098 ft 237 kts 350°
2026-04-18 04:07 34.76810 -118.85436 23094 ft 239 kts 350°
2026-04-18 04:07 34.78458 -118.85748 23098 ft 240 kts 350°
2026-04-18 04:07 34.80117 -118.86065 23096 ft 242 kts 350°
2026-04-18 04:08 34.81741 -118.86571 23090 ft 242 kts 343°
2026-04-18 04:08 34.83367 -118.87144 23092 ft 243 kts 343°
2026-04-18 04:08 34.84993 -118.87701 23091 ft 244 kts 344°
2026-04-18 04:08 34.86608 -118.88254 23092 ft 244 kts 344°
2026-04-18 04:09 34.88246 -118.88817 23092 ft 244 kts 343°
2026-04-18 04:09 34.89878 -118.89380 23092 ft 244 kts 343°
2026-04-18 04:09 34.91519 -118.89946 23084 ft 245 kts 343°
2026-04-18 04:09 34.93161 -118.90512 23083 ft 245 kts 343°
2026-04-18 04:10 34.94807 -118.91079 23082 ft 245 kts 344°
2026-04-18 04:10 34.96449 -118.91646 23072 ft 245 kts 343°
2026-04-18 04:10 34.98086 -118.92211 23080 ft 245 kts 343°
2026-04-18 04:10 34.99726 -118.92777 23089 ft 245 kts 343°
2026-04-18 04:11 35.01369 -118.93345 23076 ft 245 kts 343°
2026-04-18 04:11 35.03007 -118.93911 23075 ft 245 kts 343°
2026-04-18 04:11 35.04647 -118.94478 23073 ft 244 kts 343°
2026-04-18 04:11 35.06283 -118.95044 23072 ft 244 kts 343°
2026-04-18 04:12 35.07918 -118.95610 23071 ft 244 kts 343°
2026-04-18 04:12 35.09552 -118.96175 23048 ft 244 kts 343°
2026-04-18 04:12 35.11188 -118.96742 23053 ft 244 kts 343°
2026-04-18 04:12 35.12798 -118.97300 23053 ft 244 kts 343°
2026-04-18 04:13 35.14433 -118.97866 23049 ft 244 kts 343°
2026-04-18 04:13 35.16063 -118.98432 23050 ft 244 kts 343°
2026-04-18 04:13 35.17694 -118.98997 23042 ft 244 kts 343°
2026-04-18 04:13 35.19324 -118.99563 23044 ft 243 kts 343°
2026-04-18 04:14 35.20953 -119.00129 23048 ft 243 kts 343°
2026-04-18 04:14 35.22586 -119.00696 23046 ft 243 kts 343°
2026-04-18 04:14 35.24215 -119.01262 23045 ft 243 kts 343°
2026-04-18 04:14 35.25844 -119.01828 23033 ft 243 kts 343°
2026-04-18 04:15 35.27473 -119.02395 23038 ft 243 kts 343°
2026-04-18 04:15 35.29106 -119.02963 23035 ft 243 kts 343°
2026-04-18 04:15 35.30735 -119.03530 23037 ft 243 kts 343°
2026-04-18 04:15 35.32364 -119.04097 23036 ft 243 kts 343°
2026-04-18 04:16 35.33971 -119.04657 23037 ft 243 kts 343°
2026-04-18 04:16 35.35600 -119.05225 23038 ft 243 kts 343°
2026-04-18 04:16 35.37228 -119.05792 23037 ft 243 kts 343°
2026-04-18 04:16 35.38856 -119.06360 23026 ft 243 kts 343°
2026-04-18 04:17 35.40484 -119.06928 23025 ft 243 kts 343°
2026-04-18 04:17 35.42121 -119.07499 22914 ft 246 kts 343°
2026-04-18 04:17 35.43780 -119.08076 22707 ft 249 kts 343°
2026-04-18 04:17 35.45434 -119.08651 22443 ft 245 kts 343°
2026-04-18 04:18 35.47072 -119.09224 22178 ft 243 kts 343°
2026-04-18 04:18 35.48736 -119.09554 21937 ft 243 kts 358°
2026-04-18 04:18 35.50420 -119.09363 21692 ft 243 kts
2026-04-18 04:18 35.52094 -119.09059 21438 ft 243 kts
2026-04-18 04:19 35.53767 -119.08768 21186 ft 243 kts
2026-04-18 04:19 35.55437 -119.08472 20936 ft 242 kts
2026-04-18 04:19 35.57106 -119.08174 20690 ft 242 kts
2026-04-18 04:19 35.58774 -119.07877 20448 ft 242 kts
2026-04-18 04:20 35.59878 -119.07680 20288 ft 242 kts
2026-04-18 04:20 35.61547 -119.07383 20046 ft 242 kts
2026-04-18 04:20 35.63214 -119.07086 19812 ft 242 kts
2026-04-18 04:20 35.64876 -119.06788 19510 ft 239 kts
2026-04-18 04:21 35.67029 -119.06403 19067 ft 233 kts
2026-04-18 04:21 35.68623 -119.06120 18733 ft 230 kts
2026-04-18 04:21 35.69688 -119.05931 18514 ft 229 kts
2026-04-18 04:21 35.71252 -119.05651 18130 ft 224 kts
2026-04-18 04:22 35.72776 -119.05377 17679 ft 220 kts
2026-04-18 04:22 35.74281 -119.05109 17248 ft 217 kts
2026-04-18 04:22 35.75769 -119.04843 16799 ft 214 kts
2026-04-18 04:22 35.77226 -119.04583 16371 ft 208 kts
2026-04-18 04:23 35.78631 -119.04332 15939 ft 201 kts
2026-04-18 04:23 35.79998 -119.04088 15517 ft 196 kts
2026-04-18 04:23 35.81340 -119.03849 15100 ft 193 kts
2026-04-18 04:23 35.82664 -119.03612 14691 ft 191 kts
2026-04-18 04:24 35.83973 -119.03378 14293 ft 189 kts
2026-04-18 04:24 35.85271 -119.03146 13898 ft 188 kts
2026-04-18 04:24 35.86559 -119.02915 13469 ft 186 kts
2026-04-18 04:24 35.87836 -119.02686 13028 ft 185 kts
2026-04-18 04:25 35.89088 -119.02461 12600 ft 184 kts
2026-04-18 04:25 35.90351 -119.02250 12162 ft 182 kts
2026-04-18 04:25 35.91592 -119.02456 11728 ft 180 kts 341°
2026-04-18 04:25 35.92753 -119.03039 11312 ft 180 kts 337°
2026-04-18 04:26 35.93910 -119.03626 10904 ft 180 kts 339°
2026-04-18 04:26 35.95107 -119.04195 10515 ft 192 kts 340°
2026-04-18 04:26 35.96402 -119.04799 10142 ft 205 kts 340°
2026-04-18 04:26 35.97736 -119.05424 10018 ft 201 kts 340°
2026-04-18 04:27 35.99016 -119.06028 10015 ft 194 kts 340°
2026-04-18 04:27 36.00259 -119.06612 10013 ft 189 kts 340°
2026-04-18 04:27 36.01507 -119.07199 10017 ft 195 kts 340°
2026-04-18 04:27 36.02786 -119.07800 10017 ft 198 kts 340°
2026-04-18 04:28 36.04083 -119.08412 10021 ft 201 kts 340°
2026-04-18 04:28 36.05397 -119.09032 10024 ft 203 kts 340°
2026-04-18 04:28 36.06718 -119.09654 10021 ft 204 kts 340°
2026-04-18 04:28 36.08045 -119.10279 10022 ft 205 kts 340°
2026-04-18 04:29 36.09377 -119.10906 10021 ft 205 kts 340°
2026-04-18 04:29 36.10715 -119.11536 10025 ft 205 kts 340°
2026-04-18 04:29 36.12051 -119.12166 10022 ft 205 kts 340°
2026-04-18 04:29 36.13387 -119.12797 10021 ft 206 kts 340°
2026-04-18 04:30 36.14722 -119.13427 10017 ft 206 kts 340°
2026-04-18 04:30 36.16046 -119.14051 10017 ft 206 kts 340°
2026-04-18 04:30 36.17384 -119.14683 10015 ft 206 kts 340°
2026-04-18 04:30 36.18723 -119.15316 10013 ft 206 kts 340°
2026-04-18 04:31 36.20064 -119.15949 10015 ft 206 kts 340°
2026-04-18 04:31 36.21402 -119.16582 10013 ft 206 kts 340°
2026-04-18 04:31 36.22744 -119.17217 10007 ft 206 kts 340°
2026-04-18 04:31 36.24083 -119.17850 10012 ft 206 kts 340°
2026-04-18 04:32 36.25422 -119.18484 10011 ft 206 kts 340°
2026-04-18 04:32 36.26762 -119.19119 9995 ft 207 kts 340°
2026-04-18 04:32 36.28136 -119.19766 9763 ft 216 kts 340°
2026-04-18 04:32 36.29507 -119.20412 9451 ft 210 kts 340°
2026-04-18 04:33 36.30861 -119.21055 9134 ft 207 kts 340°
2026-04-18 04:33 36.32198 -119.21690 8822 ft 205 kts 339°
2026-04-18 04:33 36.33525 -119.22320 8513 ft 205 kts 339°
2026-04-18 04:33 36.34856 -119.22952 8203 ft 205 kts 339°
2026-04-18 04:34 36.36193 -119.23586 7890 ft 205 kts 339°
2026-04-18 04:34 36.37529 -119.24220 7577 ft 206 kts 339°
2026-04-18 04:34 36.38865 -119.24855 7265 ft 206 kts 339°
2026-04-18 04:34 36.40204 -119.25490 6952 ft 206 kts 340°
2026-04-18 04:35 36.41546 -119.26129 6637 ft 207 kts 339°
2026-04-18 04:35 36.42891 -119.26768 6313 ft 207 kts 339°
2026-04-18 04:35 36.44233 -119.27405 5989 ft 206 kts 339°
2026-04-18 04:35 36.45564 -119.28040 5668 ft 204 kts 340°
2026-04-18 04:36 36.46888 -119.28670 5361 ft 203 kts 340°
2026-04-18 04:36 36.48206 -119.29297 5050 ft 202 kts 340°
2026-04-18 04:36 36.49510 -119.29918 4738 ft 200 kts 340°
2026-04-18 04:36 36.50802 -119.30534 4429 ft 198 kts 340°
2026-04-18 04:37 36.52067 -119.31137 4131 ft 197 kts 340°
2026-04-18 04:37 36.53356 -119.31752 3827 ft 195 kts 340°
2026-04-18 04:37 36.54596 -119.32358 3528 ft 193 kts 336°
2026-04-18 04:37 36.55637 -119.33357 3394 ft 185 kts 313°
2026-04-18 04:38 36.56376 -119.34609 3398 ft 175 kts 307°
2026-04-18 04:38 36.57075 -119.35816 3398 ft 169 kts 307°
2026-04-18 04:38 36.57754 -119.36990 3387 ft 166 kts 307°
2026-04-18 04:38 36.58440 -119.38179 3389 ft 171 kts 307°
2026-04-18 04:39 36.59140 -119.39391 3391 ft 174 kts 307°
2026-04-18 04:39 36.59848 -119.40615 3393 ft 175 kts 307°
2026-04-18 04:39 36.60557 -119.41848 3395 ft 175 kts 307°
2026-04-18 04:39 36.61271 -119.43087 3397 ft 176 kts 307°
2026-04-18 04:40 36.61977 -119.44313 3397 ft 177 kts 307°
2026-04-18 04:40 36.62696 -119.45562 3368 ft 179 kts 307°
2026-04-18 04:40 36.63435 -119.46845 3272 ft 184 kts 307°
2026-04-18 04:40 36.64187 -119.48154 3154 ft 187 kts 307°
2026-04-18 04:41 36.64948 -119.49479 3033 ft 189 kts 307°
2026-04-18 04:41 36.65717 -119.50813 2906 ft 190 kts 307°
2026-04-18 04:41 36.66484 -119.52147 2781 ft 188 kts 308°
2026-04-18 04:41 36.67290 -119.53394 2680 ft 182 kts 311°
2026-04-18 04:42 36.68043 -119.54630 2564 ft 177 kts 308°
2026-04-18 04:42 36.68741 -119.55855 2475 ft 167 kts 306°
2026-04-18 04:42 36.69371 -119.56992 2366 ft 154 kts 306°
2026-04-18 04:42 36.69972 -119.58044 2253 ft 149 kts 308°
2026-04-18 04:43 36.70590 -119.59076 2089 ft 149 kts 309°
2026-04-18 04:43 36.71192 -119.60133 1919 ft 149 kts 306°
2026-04-18 04:43 36.71767 -119.61197 1763 ft 148 kts 304°
2026-04-18 04:43 36.72301 -119.62224 1656 ft 127 kts 303°
2026-04-18 04:44 36.72731 -119.63107 1528 ft 115 kts 302°
2026-04-18 04:44 36.73167 -119.63937 1380 ft 113 kts 305°
2026-04-18 04:44 36.73620 -119.64747 1252 ft 113 kts 307°
2026-04-18 04:44 36.74071 -119.65538 1196 ft 111 kts 308°
2026-04-18 04:45 36.74536 -119.66305 1149 ft 111 kts 306°
2026-04-18 04:45 36.74987 -119.67084 1065 ft 113 kts 308°
2026-04-18 04:45 36.75457 -119.67871 952 ft 113 kts 306°
2026-04-18 04:45 36.75900 -119.68647 797 ft 107 kts 307°
2026-04-18 04:46 36.76327 -119.69382 613 ft 104 kts 305°
2026-04-18 04:46 36.76744 -119.70110 421 ft 100 kts 306°
2026-04-18 04:46 36.77104 -119.70737 329 ft 76 kts 306°
2026-04-18 04:46 36.77345 -119.71158 325 ft 42 kts 305°
2026-04-18 04:47 36.77476 -119.71395 331 ft 34 kts 296°
2026-04-18 04:47 36.77607 -119.71643 331 ft 38 kts 295°
2026-04-18 04:47 36.77655 -119.71905 326 ft 20 kts 275°
2026-04-18 04:47 36.77651 -119.72077 328 ft 20 kts 283°
2026-04-18 04:48 36.77679 -119.72228 328 ft 20 kts 218°
2026-04-18 04:48 36.77566 -119.72326 329 ft 20 kts 217°
2026-04-18 04:48 36.77485 -119.72383 329 ft 0 kts 172°